DW7628 Caltanissetta IT current weather conditions

sailwx.info

Wind from 029

Air temperature 17.8° C
Dewpoint 16.3° C

Last reported at 2019-Sep-21 03:58 UTC.
Time now 2019-Sep-21 04:40 UTC

Location: N 37°30' E 014°03'.
View on Google Maps.

See reports from other nearby stations

  
Tides and Currents Weather Stations Pressure Air Temp Water Temp Dewpoint Dewpoint Depression Visibility Wind Speed Wind Dir Waves Ship Positions
date/time (UTC)wind fromknots sea level pressurealtimeterstation pressurevisibilityair tempwater tempwave heightnotes
2019-Sep-21 03:58 029 17.8
2019-Sep-21 03:48 120 17.2
2019-Sep-21 03:38 153 17.2
2019-Sep-21 03:28 091 17.2
2019-Sep-21 03:18 027 17.2
2019-Sep-21 03:08 024 17.2
2019-Sep-21 02:58 061 17.2
2019-Sep-21 02:48 055 17.2
2019-Sep-21 02:38 043 17.2
2019-Sep-21 02:28 040 17.2
2019-Sep-21 02:18 027 17.2
2019-Sep-21 02:08 027 17.2
2019-Sep-21 01:58 039 17.2
2019-Sep-21 01:48 041 17.2
2019-Sep-21 01:38 040 17.2
2019-Sep-21 01:28 040 17.2
2019-Sep-21 01:18 106 17.2
2019-Sep-21 01:08 110 17.2
2019-Sep-21 00:58 110 17.2
2019-Sep-21 00:48 051 17.2
2019-Sep-21 00:38 049 17.2
2019-Sep-21 00:28 049 17.2
2019-Sep-21 00:18 049 17.2
2019-Sep-21 00:08 049 17.2
2019-Sep-20 23:58 049 17.2
2019-Sep-20 23:48 041 17.2
2019-Sep-20 23:38 044 17.8
2019-Sep-20 23:28 045 17.8
2019-Sep-20 23:18 033 17.8
2019-Sep-20 23:08 033 17.8
2019-Sep-20 22:58 032 17.8
2019-Sep-20 22:48 032 17.8
2019-Sep-20 22:38 032 17.8
2019-Sep-20 22:28 032 17.8
2019-Sep-20 22:18 030 17.8
2019-Sep-20 22:09 030 17.8
2019-Sep-20 21:58 030 17.8
2019-Sep-20 21:48 030 17.8
2019-Sep-20 21:38 030 17.8
2019-Sep-20 21:28 030 17.8
2019-Sep-20 21:18 030 17.8
2019-Sep-20 21:08 030 17.8
2019-Sep-20 20:58 030 17.8
2019-Sep-20 20:48 030 17.8
2019-Sep-20 20:38 030 17.8
2019-Sep-20 20:28 030 17.8
2019-Sep-20 20:18 030 17.8
2019-Sep-20 20:08 030 17.8
2019-Sep-20 19:58 030 17.8
2019-Sep-20 19:48 030 17.2
2019-Sep-20 19:38 030 17.8
2019-Sep-20 19:28 030 17.8
2019-Sep-20 19:18 030 17.8
2019-Sep-20 19:08 030 17.8
2019-Sep-20 18:58 028 17.8
2019-Sep-20 18:48 021 17.8
2019-Sep-20 18:38 015 17.2
2019-Sep-20 18:28 027 17.2
2019-Sep-20 18:18 027 17.8
2019-Sep-20 18:08 027 17.8
2019-Sep-20 17:58 028 17.8
2019-Sep-20 17:48 058 17.2
2019-Sep-20 17:38 024 17.2
2019-Sep-20 17:28 015 17.2
2019-Sep-20 17:18 058 16.7
2019-Sep-20 17:08 124 17.2
2019-Sep-20 16:58 065 17.2
2019-Sep-20 16:48 065 17.2
2019-Sep-20 16:38 174 17.2
2019-Sep-20 16:28 174 16.7
2019-Sep-20 16:18 173 16.7
2019-Sep-20 16:08 173 16.7
2019-Sep-20 15:58 173 16.7
2019-Sep-20 15:48 173 16.7
2019-Sep-20 15:38 175 16.1
2019-Sep-20 15:28 187 16.7
2019-Sep-20 15:18 188 0 gusting 10 16.7
2019-Sep-20 15:08 046 2 gusting 8 17.2
2019-Sep-20 14:58 001 4 gusting 10 18.3
2019-Sep-20 14:48 195 18.9
2019-Sep-20 14:38 186 8 gusting 15 20.0
2019-Sep-20 14:28 178 7 gusting 17 21.1
2019-Sep-20 14:18 176 5 gusting 17 21.7
2019-Sep-20 14:08 183 0 gusting 11 21.7
2019-Sep-20 13:58 185 0 gusting 8 21.7
2019-Sep-20 13:48 184 1 gusting 11 22.8
2019-Sep-20 13:38 181 0 gusting 8 23.3
2019-Sep-20 13:28 177 0 gusting 8 23.3
2019-Sep-20 13:18 176 22.2
2019-Sep-20 13:08 184 0 gusting 10 21.7
2019-Sep-20 12:58 179 0 gusting 7 21.7
2019-Sep-20 12:48 166 21.1
2019-Sep-20 12:28 184 0 gusting 6 22.8
2019-Sep-20 12:18 176 0 gusting 7 23.9
2019-Sep-20 12:08 188 4 gusting 11 24.4
2019-Sep-20 11:58 179 25.0
2019-Sep-20 11:48 139 25.0
2019-Sep-20 11:38 195 0 gusting 6 25.0
2019-Sep-20 11:28 172 25.0
2019-Sep-20 11:18 176 25.6
2019-Sep-20 11:08 180 25.6
2019-Sep-20 10:58 181 25.6
2019-Sep-20 10:48 181 25.6
2019-Sep-20 10:38 120 25.6
2019-Sep-20 10:28 189 25.0
2019-Sep-20 10:18 186 25.0
2019-Sep-20 10:08 142 25.0
2019-Sep-20 09:58 185 24.4
2019-Sep-20 09:48 184 24.4
2019-Sep-20 09:38 184 24.4
2019-Sep-20 09:28 134 23.9
2019-Sep-20 09:18 165 23.9
2019-Sep-20 09:08 143 23.3
2019-Sep-20 08:58 023 23.3
2019-Sep-20 08:48 164 22.8
2019-Sep-20 08:38 167 22.8
2019-Sep-20 08:28 160 0 gusting 7 22.8
2019-Sep-20 08:18 184 22.8
2019-Sep-20 08:08 167 22.2
2019-Sep-20 07:58 179 1 gusting 6 21.7
2019-Sep-20 07:48 181 21.7
2019-Sep-20 07:38 183 21.1
2019-Sep-20 07:28 181 0 gusting 6 21.1
2019-Sep-20 07:18 167 20.6
2019-Sep-20 07:08 179 20.0
2019-Sep-20 06:58 021 19.4
2019-Sep-20 06:48 001 0 gusting 5 19.4
2019-Sep-20 06:38 025 19.4
2019-Sep-20 06:28 013 0 gusting 7 19.4
2019-Sep-20 06:18 020 19.4
2019-Sep-20 06:08 020 19.4
2019-Sep-20 05:58 020 19.4
2019-Sep-20 05:48 020 19.4
2019-Sep-20 05:38 015 19.4
2019-Sep-20 05:28 015 19.4
2019-Sep-20 05:18 015 19.4
2019-Sep-20 05:08 015 19.4
2019-Sep-20 04:58 011 19.4
2019-Sep-20 04:48 025 18.9
2019-Sep-20 04:38 026 18.9
2019-Sep-20 04:28 026 18.9
2019-Sep-20 04:18 025 18.9
2019-Sep-20 04:08 027 18.9
2019-Sep-20 03:58 018 18.9
2019-Sep-20 03:48 015 0 gusting 4 18.9
2019-Sep-20 03:38 169 18.9
2019-Sep-20 03:28 169 18.9
2019-Sep-20 03:18 169 18.9
2019-Sep-20 03:08 169 18.9
2019-Sep-20 02:58 169 18.9
2019-Sep-20 02:48 169 18.9
2019-Sep-20 02:38 169 18.9
2019-Sep-20 02:28 169 18.9
2019-Sep-20 02:18 169 18.9
2019-Sep-20 02:08 169 19.4
2019-Sep-20 01:58 169 19.4
2019-Sep-20 01:48 169 19.4
2019-Sep-20 01:38 169 19.4
2019-Sep-20 01:28 169 19.4
2019-Sep-20 01:18 169 19.4
2019-Sep-20 01:08 169 19.4
2019-Sep-20 00:58 169 20.0
2019-Sep-20 00:48 169 20.0
2019-Sep-20 00:38 169 20.0
2019-Sep-20 00:28 169 20.0
2019-Sep-20 00:18 169 20.0
2019-Sep-20 00:08 169 20.0
2019-Sep-19 23:58 169 20.0
2019-Sep-19 23:48 169 20.0
2019-Sep-19 23:38 169 20.0
2019-Sep-19 23:28 169 20.0
2019-Sep-19 23:18 169 20.0
2019-Sep-19 23:08 169 20.0
2019-Sep-19 22:58 169 20.0
2019-Sep-19 22:48 169 20.0
2019-Sep-19 22:38 169 20.0
2019-Sep-19 22:28 169 20.0
2019-Sep-19 22:18 169 20.0
2019-Sep-19 22:09 169 20.6
2019-Sep-19 21:58 169 20.6
2019-Sep-19 21:48 169 20.6
2019-Sep-19 21:38 169 20.6
2019-Sep-19 21:28 169 20.6
2019-Sep-19 21:18 169 20.6
2019-Sep-19 21:08 169 20.6
2019-Sep-19 20:58 169 20.6
2019-Sep-19 20:48 169 20.6
2019-Sep-19 20:38 169 20.6
2019-Sep-19 20:28 169 20.6
2019-Sep-19 20:18 169 20.6
2019-Sep-19 20:08 169 20.6
2019-Sep-19 19:58 169 20.6
2019-Sep-19 19:48 169 20.6
2019-Sep-19 19:38 169 20.6
2019-Sep-19 19:28 169 20.6
2019-Sep-19 19:18 169 20.6
2019-Sep-19 19:08 169 21.1
2019-Sep-19 18:58 025 21.1
2019-Sep-19 18:48 025 21.1
2019-Sep-19 18:38 025 21.1
2019-Sep-19 18:28 025 21.1
2019-Sep-19 18:18 025 21.1
2019-Sep-19 18:08 025 21.7
2019-Sep-19 17:58 025 21.1
2019-Sep-19 17:48 025 21.7
2019-Sep-19 17:38 025 21.1
2019-Sep-19 17:28 025 21.1
2019-Sep-19 17:18 025 21.7
2019-Sep-19 17:08 025 21.7
2019-Sep-19 16:58 025 21.7
2019-Sep-19 16:48 025 21.1
2019-Sep-19 16:38 021 21.1
2019-Sep-19 16:28 021 20.6
2019-Sep-19 16:18 018 20.6
2019-Sep-19 16:08 018 0 gusting 8 21.7
2019-Sep-19 15:58 202 23.9
2019-Sep-19 15:48 155 25.6
2019-Sep-19 15:38 144 26.1
2019-Sep-19 15:28 175 1 gusting 10 26.7
2019-Sep-19 15:18 147 1 gusting 10 27.2
2019-Sep-19 15:08 172 0 gusting 6 27.2
2019-Sep-19 14:58 144 27.2
2019-Sep-19 14:48 132 27.8
2019-Sep-19 14:38 166 0 gusting 10 27.8
2019-Sep-19 14:28 172 27.2
2019-Sep-19 14:18 138 0 gusting 10 27.2
2019-Sep-19 14:08 183 5 gusting 13 27.2
2019-Sep-19 13:58 187 0 gusting 13 27.8
2019-Sep-19 13:48 177 1 gusting 10 27.8
2019-Sep-19 13:38 150 0 gusting 10 27.8
2019-Sep-19 13:28 125 0 gusting 11 27.8
2019-Sep-19 13:18 174 28.3
2019-Sep-19 13:08 134 28.3
2019-Sep-19 12:58 142 27.8
2019-Sep-19 12:48 117 0 gusting 5 27.8
2019-Sep-19 12:38 131 27.8
2019-Sep-19 12:28 148 27.2
2019-Sep-19 12:18 140 0 gusting 7 27.8
2019-Sep-19 12:08 124 27.8
2019-Sep-19 11:58 153 27.2
2019-Sep-19 11:48 129 27.2
2019-Sep-19 11:38 152 26.7
2019-Sep-19 11:28 162 26.7
2019-Sep-19 11:18 141 26.7
2019-Sep-19 11:08 103 26.1
2019-Sep-19 10:58 110 25.6
2019-Sep-19 10:48 172 1 gusting 8 25.6
2019-Sep-19 10:38 166 1 gusting 6 25.0
2019-Sep-19 10:28 167 0 gusting 6 25.0
2019-Sep-19 10:18 163 0 gusting 6 25.6
2019-Sep-19 10:08 153 25.6
2019-Sep-19 09:58 156 24.4
2019-Sep-19 09:48 173 1 gusting 6 23.9
2019-Sep-19 09:38 073 23.3
2019-Sep-19 09:28 049 23.9
2019-Sep-19 09:18 155 23.9
2019-Sep-19 09:08 160 1 gusting 7 23.9
2019-Sep-19 08:58 136 23.3
2019-Sep-19 08:48 162 23.3
2019-Sep-19 08:38 167 23.3
2019-Sep-19 08:28 167 2 gusting 7 23.9
2019-Sep-19 08:18 136 23.3
2019-Sep-19 08:08 143 1 gusting 6 23.3
2019-Sep-19 07:58 115 23.3
2019-Sep-19 07:48 107 22.2
2019-Sep-19 07:38 105 21.7
2019-Sep-19 07:28 105 21.7
2019-Sep-19 07:18 105 21.7
2019-Sep-19 07:08 105 21.7
2019-Sep-19 06:58 105 21.1
2019-Sep-19 06:48 053 20.6
2019-Sep-19 06:38 053 20.0
2019-Sep-19 06:28 053 20.0
2019-Sep-19 06:18 053 19.4
2019-Sep-19 06:08 053 19.4
2019-Sep-19 05:58 053 18.9
2019-Sep-19 05:48 053 18.3
2019-Sep-19 05:38 053 18.3
2019-Sep-19 05:28 053 18.3
2019-Sep-19 05:18 053 18.3
2019-Sep-19 05:08 053 18.3
2019-Sep-19 04:58 053 17.8
2019-Sep-19 04:48 053 17.8
2019-Sep-19 04:38 053 17.8
2019-Sep-19 04:28 053 17.8
2019-Sep-19 04:18 053 17.8
2019-Sep-19 04:08 053 17.8